Regional Weather Roundup
Issued by NWS

Home | Current Version | Previous Version | Graphics & Text | Print | Product List | Glossary On
Versions: 1 2 3 4 5 6 7 8 9 10 11 12 13 14 15 16 17 18 19 20 21 22 23 24 25 26 27 28
000
ASUS45 KBOU 170510
RWRCO

WEATHER ROUNDUP FOR COLORADO
NATIONAL WEATHER SERVICE DENVER/BOULDER CO
1000 PM MST SAT DEC 16 2017

NOTE: "FAIR" INDICATES FEW OR NO CLOUDS BELOW 12000 FEET WITH NO
SIGNIFICANT WEATHER AND/OR OBSTRUCTIONS TO VISIBILITY.

COZ001>005-013-030-031-170600-
...NORTHWEST COLORADO...

CITY           SKY/WX    TMP DP  RH WIND       PRES   REMARKS
CRAIG          FAIR      15   9  76 N5        29.86R WCI   8
HAYDEN         FAIR      24  15  68 CALM      29.86R
MEEKER         FAIR      23  12  62 CALM      29.85R
RABBIT EARS PA MOCLDY    21  -4  33 W9        29.85R WCI  11
STEAMBOAT SPGS FAIR      24  14  66 CALM      29.84R
WALDEN         MOCLDY    10   5  79 SE7       29.86R WCI   0
$$

COZ006>008-011-170600-
...WEST CENTRAL VALLEYS...

CITY           SKY/WX    TMP DP  RH WIND       PRES   REMARKS
GRAND JUNCTION FAIR      22   5  48 CALM      29.88R
MONTROSE       FAIR      28   9  44 SE5       29.89R WCI  23
EAGLE          FAIR      19  12  74 CALM      29.88R
RIFLE          FAIR      26   9  48 CALM      29.88R
DELTA          FAIR      31   7  36 NE5       29.88R WCI  26
NUCLA          FAIR      34  -2  21 CALM      29.90R
$$

COZ017>023-064>068-170600-
...SOUTHWEST COLORADO...

CITY           SKY/WX    TMP DP  RH WIND       PRES   REMARKS
DURANGO        CLOUDY    31  10  41 CALM      29.85R
CORTEZ         FAIR      29  10  45 NE7       29.87R WCI  22
PAGOSA SPRINGS MOCLDY    26   4  38 CALM      29.87R
TELLURIDE      CLOUDY    31  -3  23 W5        29.88R WCI  27
WOLF CREEK PAS CLOUDY    21   1  42 SW9       29.96R WCI  11
$$

COZ009-010-012-014-032>034-037-058>063-170600-
...CENTRAL COLORADO...

CITY           SKY/WX    TMP DP  RH WIND       PRES   REMARKS
ASPEN          FAIR      22  13  68 SW3       29.83R
BUENA VISTA    FAIR      18  11  75 W5        29.88R WCI  11
COPPER MTN     NOT AVBL
BERTHOUD PASS  CLOUDY    19   9  63 SW7G20    29.89S WCI  10
COTTONWOOD PAS CLOUDY    32  10  40 CALM      29.88S
GUNNISON       FAIR      20  11  68 MISG      29.88R
KREMMLING      FAIR      18  10  73 SE5       29.86S WCI  11
LEADVILLE      MOCLDY    21   6  52 NE5       29.86R WCI  15
MONARCH PASS   CLOUDY    23  -4  30 W12       30.00S WCI  12
SALIDA         FAIR      31   6  34 CALM      29.94R
SUNLIGHT       CLOUDY    21  -6  30 SW7       29.91R WCI  13
WILKERSON PASS MOCLDY    21   1  42 SW13      29.91S WCI   9
$$

COZ069>075-170600-
...SAN LUIS VALLEY/SANGRE DE CRISTO MOUNTAINS...

CITY           SKY/WX    TMP DP  RH WIND       PRES   REMARKS
ALAMOSA        FAIR      14  11  87 W7        29.83R WCI   4
DEL NORTE      FAIR      21   8  57 W7        29.84R WCI  13
LA VETA PASS   FAIR      19   9  63 N3          N/A
SAGUACHE       FAIR      23  10  58 NW6       29.85R WCI  16
$$

COZ035-036-038>040-170600-
...NORTHERN COLORADO FRONT RANGE...

CITY           SKY/WX    TMP DP  RH WIND       PRES   REMARKS
DENVER INTL AP CLOUDY    30  24  78 CALM      29.94R
DMNS CITY PARK NOT AVBL
AURORA         CLOUDY    29  26  89 NE5       29.94R WCI  23
FRONT RANGE AP CLOUDY    31  28  88 E10G20    29.93S WCI  23
ERIE MUNI ARPT CLOUDY    33  25  73 E7        30.01S WCI  26
BOULDER MUN AP CLOUDY    32  27  80 E6        29.95S WCI  26
CENTENNIAL     CLOUDY    29  25  85 E7        29.92R WCI  22
BROOMFIELD     CLOUDY    32  27  80 NE8       29.94F WCI  25
FORT COLLINS   CLOUDY    31  27  85 E9        29.96S WCI  23
LONGMONT       CLOUDY    35  26  70 E6        29.97S WCI  30
$$

COZ041-046-047-076>085-087-088-170600-
...PIKES PEAK/PALMER DIVIDE AND SOUTHERN FOOTHILLS...

CITY           SKY/WX    TMP DP  RH WIND       PRES   REMARKS
COLO. SPRINGS  MOCLDY    30  21  69 N9        29.89R WCI  22
A. F. ACADEMY  FAIR      27  15  62 N6        29.88R WCI  20
SCHRIEVER AFB  MOCLDY    28  20  74 NE9       29.89R WCI  19
CHEYENNE MTN   MOCLDY    30  17  59 CALM      29.83R
ELLICOTT         N/A    N/A N/A N/A NE14      29.85S
FALCON         FAIR      26  22  82 N6        29.89R WCI  20
FORT CARSON    MOCLDY    30  19  62 N6        29.88R WCI  24
LIMON          CLOUDY    27  27 100 NE15      29.89S WCI  15
MONUMENT HILL  FAIR      23  21  93 E5        29.90R WCI  17
CANON CITY     FAIR      32  18  55 E3        29.89R
WALSENBURG     FAIR      25  14  63 W5        29.90R WCI  19
TRINIDAD       FAIR      30  15  53 W8        29.88R WCI  22
$$

COZ042>045-048>051-090-091-170600-
...NORTHEAST COLORADO...

CITY           SKY/WX    TMP DP  RH WIND       PRES   REMARKS
GREELEY ARPT   CLOUDY    32  26  78 CALM      29.97R
AKRON          CLOUDY    30  28  92 NE13      29.93S WCI  20
BURLINGTON     CLOUDY    30  27  88 N16G26    29.90R WCI  19
WRAY           CLOUDY    36  32  87 NE13      29.96R
YUMA           CLOUDY    32  30  93 N10       29.94S WCI  24
STERLING       CLOUDY    34  32  93 E10       29.96S WCI  26
HOLYOKE        CLOUDY    36  32  87 NE12      29.96S
FORT MORGAN    CLOUDY    32  28  83 NE15      29.95S WCI  22
$$

COZ086-089-092>099-170600-
...SOUTHEAST COLORADO...

CITY           SKY/WX    TMP DP  RH WIND       PRES   REMARKS
PUEBLO         FAIR      31  16  54 W9        29.90R WCI  23
LA JUNTA       FAIR      34  24  67 N17G24    29.86R WCI  23
LAMAR          FAIR      34  22  61 NE15      29.80R WCI  24
SPRINGFIELD      N/A     26  17  68 NW12      29.76R WCI  16
$$




USA.gov is the U.S. government's official web portal to all federal, state and local government web resources and services.